RYR65HX EIDW-LGKO

Flight info

Callsign RYR65HX
Flight time N/A
Altitude 35000
Route ENDEQ3J ENDEQ Q36 ALAVA Z195 MALUD UL975 WAL M16 DOLAS DCT NAVPI DCT DODEN DCT NEGIX DCT DINKU/N0436F370 DCT BESNI DCT LATLO DCT OBEDI DCT NAKUM DCT OLEZE DCT TEBLI DCT BOSNA DCT KEB DCT MEDUX UM867 KOGAT DCT ERANA UL737 TSL DCT KOROS DCT MES UN139 ERIMA N139 LURUS UL995 KOPAR
Aircraft B738/M-SADE3FGHIJ1J7LP2RWXY/SB1D1G1

Departure

Time 2026-05-01 14:50
Airport Dublin Airport (EIDW)

Arrival

Time N/A
Airport Kos International Airport "Ippokratis" (LGKO)
Time Latitude Longitude Altitude Speed Heading
2026-05-01 13:22 53.43003 -6.24878 210 ft 0 kts
2026-05-01 14:39 53.42999 -6.24879 210 ft 3 kts
2026-05-01 14:39 53.42975 -6.24875 210 ft 4 kts 335°
2026-05-01 14:40 53.42958 -6.24846 214 ft 4 kts 308°
2026-05-01 14:40 53.42944 -6.24814 210 ft 4 kts 289°
2026-05-01 14:40 53.42939 -6.24770 219 ft 4 kts 274°
2026-05-01 14:40 53.42939 -6.24749 214 ft 0 kts 275°
2026-05-01 14:43 53.42939 -6.24754 215 ft 1 kts 275°
2026-05-01 14:44 53.42940 -6.24777 220 ft 3 kts 275°
2026-05-01 14:44 53.42945 -6.24879 210 ft 6 kts 275°
2026-05-01 14:44 53.42950 -6.24967 210 ft 9 kts 275°
2026-05-01 14:45 53.42956 -6.25078 216 ft 11 kts 275°
2026-05-01 14:45 53.42951 -6.25337 210 ft 11 kts 291°
2026-05-01 14:45 53.43016 -6.25403 216 ft 11 kts 336°
2026-05-01 14:46 53.43093 -6.25461 219 ft 14 kts 337°
2026-05-01 14:46 53.43309 -6.25616 218 ft 19 kts 336°
2026-05-01 14:46 53.43402 -6.25620 215 ft 14 kts 60°
2026-05-01 14:47 53.43402 -6.25463 210 ft 14 kts 94°
2026-05-01 14:47 53.43392 -6.25281 212 ft 17 kts 95°
2026-05-01 14:47 53.43379 -6.25062 210 ft 20 kts 95°
2026-05-01 14:48 53.43359 -6.24608 219 ft 11 kts 77°
2026-05-01 14:48 53.43417 -6.24556 215 ft 10 kts
2026-05-01 14:48 53.43526 -6.24579 216 ft 6 kts 274°
2026-05-01 14:49 53.43571 -6.25420 209 ft 99 kts 276°
2026-05-01 14:49 53.43774 -6.28798 800 ft 168 kts 276°
2026-05-01 14:50 53.44348 -6.31232 1825 ft 178 kts 310°
2026-05-01 14:50 53.47346 -6.35134 2989 ft 233 kts 349°
2026-05-01 14:51 53.48969 -6.35136 3727 ft 236 kts 360°
2026-05-01 14:51 53.51964 -6.33367 5320 ft 240 kts 53°
2026-05-01 14:52 53.52639 -6.27656 6141 ft 272 kts 95°
2026-05-01 14:52 53.52559 -6.24452 6906 ft 277 kts 96°
2026-05-01 14:52 53.52414 -6.17901 8513 ft 284 kts 97°
2026-05-01 14:53 53.52353 -6.14568 9342 ft 287 kts 97°
2026-05-01 14:53 53.52294 -6.11194 10155 ft 290 kts 97°
2026-05-01 14:53 53.52232 -6.07828 10881 ft 293 kts 98°
2026-05-01 14:53 53.51944 -6.04456 11608 ft 291 kts 109°
2026-05-01 14:54 53.51440 -6.01145 12357 ft 293 kts 110°
2026-05-01 14:54 53.50908 -5.97822 13109 ft 297 kts 110°
2026-05-01 14:54 53.50385 -5.94435 13847 ft 301 kts 110°
2026-05-01 14:54 53.49878 -5.91017 14526 ft 304 kts 109°
2026-05-01 14:55 53.49372 -5.87552 15229 ft 305 kts 109°